Location: Buchdorf
(48.7842°N, 10.8275°E)
Time: 07:53:15
(UTC+00:00)

IGS 5A - Pass Details

Date: 09 April 2020
Orbit: 585 x 587 km, 97.6° (Epoch: 19 May)

Event Time Altitude Azimuth Distance (km) Brightness Sun altitude
Exits shadow 20:20:36 65° 134° (SE) 649 3.3 -21.2°
Maximum altitude 20:21:07 77° 75° (ENE) 608 3.3 -21.3°
Drops below altitude 10° 20:25:16 10° 350° (N) 1,921 6.8 -21.8°
Sets 20:27:27 0° 349° (NNW) 2,827 7.8 -22.0°
